#timestamp,LO_Frequency,Hit,StdDev 
1612065615.4,286047001.2,P
1612065635.3,286047001.1,N
1612065655.1,286047002.7,N
1612065675.9,286047002.8,N
1612065695.7,286046999.7,N
1612065715.5,286047001.0,N
1612065735.4,286047000.8,N
1612065755.2,286047000.4,N
1612065775.0,286047001.2,N
1612065775.9,286047001.2,N
1612065795.8,286047000.6,N
1612065815.6,286046999.7,N
1612065835.5,286047002.5,N
1612065855.3,286046999.8,N
1612065875.1,286047000.3,N
1612065895.9,286047000.7,N
1612065915.7,286046999.2,N
1612065935.6,286046996.7,N
1612065955.4,286046998.8,N
1612065975.2,286046999.2,N
1612065995.1,286046999.4,N
1612065996.0,286046999.4,N
1612066015.8,286046999.5,N
1612066035.6,286046996.7,N
1612066055.5,286046997.0,N
1612066075.3,286046999.1,N
1612066095.2,286046999.1,N
1612066115.9,286046999.6,N
1612066135.7,286046997.2,N
1612066155.6,286047000.7,N
1612066175.4,286046998.8,N
1612066195.3,286047002.7,N
1612066215.1,286047001.1,N
1612066216.0,286047001.1,N
1612066235.8,286046996.8,N
1612066255.7,286046999.3,N
1612066275.5,286046998.1,N
1612066295.3,286046998.1,N
1612066315.2,286046998.4,N
1612066335.0,286046998.4,N
1612066335.9,286046998.4,N
1612066355.8,286046998.4,N
1612066375.6,286046996.5,N
1612066395.4,286046998.6,N
1612066415.3,286047010.5,Y
1612066435.1,286047015.3,P
1612066455.9,286047013.9,N
1612066475.7,286047018.2,N
1612066495.5,286047015.9,N
1612066515.4,286047012.7,N
1612066535.2,286047010.1,N
1612066555.1,286047005.0,N
1612066556.0,286047005.0,N
1612066575.8,286047014.6,N
1612066595.6,286047018.7,Y
1612066615.5,286047007.6,P
1612066635.3,286047011.9,P
1612066655.1,286047008.0,P
1612066675.9,286047006.2,Y
1612066695.7,286046996.0,P
1612066715.6,286046995.1,N
1612066735.4,286046994.2,N
1612066755.2,286046992.2,N
1612066775.1,286046992.8,N
1612066776.0,286046992.8,N
1612066795.8,286046990.8,N
1612066815.7,286046990.8,N
1612066835.5,286046990.9,N
1612066855.3,286046990.9,N
1612066875.2,286046990.7,N
1612066895.0,286046989.2,N
1612066895.9,286046989.2,N
1612066915.8,286046988.5,N
1612066935.6,286046991.0,N
1612066955.4,286046991.4,N
1612066975.3,286046988.9,N
1612066995.1,286046988.8,N
1612067015.8,286046989.3,N
1612067035.7,286046986.9,N
1612067055.5,286046986.9,N
1612067075.4,286046987.0,N
1612067095.2,286046987.4,N
1612067115.0,286046985.5,Y
1612067115.9,286046985.5,P
1612067135.8,286046995.7,N
1612067155.6,286046993.3,N
1612067175.5,286046996.3,N
1612067195.3,286046993.3,N
1612067215.1,286046997.9,N
1612067235.9,286046997.5,N
1612067255.7,286046995.0,N
1612067275.5,286046995.7,N
1612067295.4,286046996.1,N
1612067315.2,286046993.5,N
1612067335.1,286046994.4,N
1612067336.0,286046994.4,N
1612067355.8,286046994.8,N
1612067375.6,286046991.9,N
1612067395.5,286046994.4,N
1612067415.3,286046993.3,N
1612067435.2,286046991.8,Y
1612067455.9,286046996.8,P
1612067475.7,286046995.3,P
1612067495.6,286046996.1,P
1612067515.4,286046993.6,Y
1612067535.2,286046998.3,P
1612067555.1,286047001.2,N
1612067556.0,286047001.2,N
1612067575.8,286047002.7,N
1612067595.7,286046999.7,N
1612067615.5,286047004.3,N
1612067635.3,286047003.9,N
1612067655.2,286047001.8,N
1612067675.0,286047002.3,N
1612067675.9,286047002.3,N
1612067695.8,286047002.1,N
1612067715.6,286047002.7,N
1612067735.4,286047000.4,N
1612067755.3,286047002.8,N
1612067775.1,286047001.5,N
1612067795.8,286047002.8,N
1612067815.7,286047001.6,N
1612067835.5,286047001.4,N
1612067855.4,286047002.6,N
1612067875.2,286047002.6,N
1612067895.0,286047002.6,N
1612067895.9,286047002.6,N
1612067915.8,286047000.8,N
1612067935.6,286047001.0,N
1612067955.5,286047001.0,N
1612067975.3,286047000.8,N
1612067995.1,286046999.9,N
1612068015.9,286047000.2,N
1612068035.7,286047001.4,N
1612068055.5,286046999.8,N
1612068075.4,286047001.6,N
1612068095.2,286047002.3,N
1612068115.1,286047000.2,N
1612068116.0,286047000.2,N
1612068135.8,286046999.8,N
1612068155.6,286047001.0,N
1612068175.5,286047000.0,N
1612068195.3,286047001.1,N
1612068215.2,286047007.5,Y
1612068235.9,286047005.2,P
1612068255.7,286047003.5,N
1612068275.6,286047001.3,N
1612068295.4,286047004.4,N
1612068315.2,286047001.5,N
1612068335.1,286047001.6,N
1612068336.0,286047001.6,N
1612068355.8,286047002.7,N
1612068375.7,286047000.8,N
1612068395.5,286046998.3,N
1612068415.3,286047000.7,N
1612068435.2,286046998.3,N
1612068455.0,286046998.2,N
1612068455.9,286046998.2,N
1612068475.8,286047000.0,N
1612068495.6,286047004.1,N
1612068515.4,286047001.6,N
1612068535.3,286047002.3,N
1612068555.1,286047002.7,N
1612068575.9,286046999.8,N
1612068595.7,286047000.1,N
1612068615.5,286047000.2,N
1612068635.4,286047000.4,N
1612068655.2,286047000.4,N
1612068675.0,286047000.9,N
1612068675.9,286047000.9,N
1612068695.8,286047002.4,N
1612068715.6,286047002.6,N
1612068735.5,286047000.6,N
1612068755.3,286047000.1,N
1612068775.1,286046999.7,N
1612068795.9,286047000.9,N
1612068815.7,286047000.3,N
1612068835.6,286047002.8,N
1612068855.4,286047002.7,N
1612068875.2,286047002.6,N
1612068895.1,286047002.5,N
1612068896.0,286047002.5,N
1612068915.8,286047002.8,N
1612068935.6,286047000.3,N
1612068955.5,286047001.1,N
1612068975.3,286046999.2,N
1612068995.2,286046997.4,N
1612069015.9,286046996.8,N
1612069035.7,286046996.8,N
1612069055.6,286046997.6,N
1612069075.4,286046995.0,N
1612069095.3,286046995.1,N
1612069115.1,286046999.0,N
1612069116.0,286046999.0,N
1612069135.8,286047007.6,Y
1612069155.7,286047007.6,P
1612069175.5,286047005.9,N
1612069195.4,286047002.7,N
